Alliance, NE

6:59 AM MDT on October 23, 2017 (GMT -0600)
Alliance Municipal

Weather History for KAIA - September, 2013

Change the Weather History Date:

Sunday, September 29, 2013

  Actual Average Record
Temperature  
Mean Temperature 58 °F 53 °F  
Max Temperature 78 °F 70 °F 92 °F (1938)
Min Temperature 38 °F 36 °F 21 °F (1985)
Degree Days  
Heating Degree Days 7 12  
Month to date heating degree days 119 196  
Since 1 July heating degree days 127 233  
Cooling Degree Days 0 0  
Month to date cooling degree days 136 38  
Year to date cooling degree days 795 561  
Growing Degree Days 8 (Base 50)    
Moisture  
Dew Point 35 °F    
Average Humidity 51    
Maximum Humidity 85    
Minimum Humidity 16    
Precipitation  
Precipitation 0.00 in 0.05 in 1.42 in (2014)
Month to date precipitation 2.88 1.35  
Year to date precipitation 11.94 13.76  
Sea Level Pressure  
Sea Level Pressure 29.85 in    
Wind  
Wind Speed 13 mph (SW)    
Max Wind Speed 30 mph    
Max Gust Speed 37 mph    
Visibility 10 miles    
Events      
T = Trace of Precipitation, MM = Missing Value Source: NWS Daily Summary

Daily Weather History Graph

Daily Weather History Graph

Search for Another Location

Airport or City:

Trip Planner

Search our weather history database for the weather conditions in past years. The results will help you decide how hot, cold, wet, or windy it might be!

Date:

Astronomy

Sep. 29, 2013 Rise Set
Actual Time 6:46 AM MDT 6:35 PM MDT
Civil Twilight 6:18 AM MDT 7:03 PM MDT
Nautical Twilight 5:46 AM MDT 7:35 PM MDT
Astronomical Twilight 5:13 AM MDT 8:08 PM MDT
Moon 1:25 AM MDT (9/29) 3:37 PM MDT (9/29)
Length of Visible Light 12h 45m
Length of Day
11h 49m
Waning Crescent, 26% of the Moon is Illuminated
Sep 29
Waning Crescent
Oct 4
New
Oct 11
First Quarter
Oct 18
Full
Oct 26
Last Quarter

Hourly Weather History & Observations

Time (MDT) Temp. Windchill Dew Point Humidity Pressure Visibility Wind Dir Wind Speed Gust Speed Precip Events Conditions
12:53 AM 41.0 °F 36.4 °F 36.0 °F 82% 30.02 in 10.0 mi SSW 6.9 mph - N/A   Clear
1:53 AM 39.0 °F 33.4 °F 34.0 °F 82% 30.01 in 10.0 mi SE 8.1 mph - N/A   Clear
2:53 AM 39.0 °F 36.8 °F 35.1 °F 86% 29.99 in 10.0 mi SSE 3.5 mph - N/A   Clear
3:53 AM 39.9 °F - 35.1 °F 83% 29.97 in 10.0 mi Calm Calm - N/A   Clear
4:53 AM 39.9 °F - 35.1 °F 83% 29.97 in 10.0 mi Calm Calm - N/A   Clear
5:53 AM 43.0 °F 37.7 °F 35.1 °F 74% 29.95 in 10.0 mi SW 9.2 mph - N/A   Clear
6:53 AM 46.0 °F 40.6 °F 36.0 °F 68% 29.96 in 10.0 mi SSW 11.5 mph - N/A   Clear
7:53 AM 51.1 °F - 37.9 °F 61% 29.94 in 10.0 mi SW 5.8 mph - N/A   Clear
8:53 AM 62.1 °F - 36.0 °F 38% 29.91 in 10.0 mi SW 13.8 mph - N/A   Clear
9:53 AM 66.9 °F - 32.0 °F 27% 29.90 in 10.0 mi SW 19.6 mph 26.5 mph N/A   Clear
10:53 AM 71.1 °F - 32.0 °F 24% 29.88 in 10.0 mi WSW 25.3 mph 32.2 mph N/A   Clear
11:53 AM 73.0 °F - 28.9 °F 20% 29.84 in 10.0 mi WSW 25.3 mph 34.5 mph N/A   Clear
12:53 PM 73.9 °F - 30.9 °F 21% 29.82 in 10.0 mi WSW 26.5 mph 33.4 mph N/A   Clear
1:53 PM 75.9 °F - 30.9 °F 19% 29.78 in 10.0 mi WSW 24.2 mph 32.2 mph N/A   Clear
2:53 PM 77.0 °F - 30.9 °F 19% 29.76 in 10.0 mi WSW 24.2 mph 32.2 mph N/A   Clear
3:53 PM 78.1 °F - 28.0 °F 16% 29.74 in 10.0 mi West 26.5 mph 35.7 mph N/A   Clear
4:53 PM 75.9 °F - 30.9 °F 19% 29.74 in 10.0 mi WSW 16.1 mph - N/A   Clear
5:53 PM 66.0 °F - 36.0 °F 33% 29.74 in 10.0 mi SSW 9.2 mph - N/A   Clear
6:53 PM 60.1 °F - 39.0 °F 46% 29.76 in 10.0 mi SSW 10.4 mph - N/A   Clear
7:53 PM 61.0 °F - 37.9 °F 42% 29.75 in 10.0 mi SSW 6.9 mph - N/A   Clear
8:53 PM 53.1 °F - 39.9 °F 61% 29.77 in 10.0 mi South 3.5 mph - N/A   Clear
9:53 PM 51.1 °F - 41.0 °F 68% 29.76 in 10.0 mi West 10.4 mph - N/A   Clear
10:53 PM 50.0 °F - 39.9 °F 68% 29.75 in 10.0 mi SW 9.2 mph - N/A   Clear
11:53 PM 46.0 °F - 39.9 °F 79% 29.76 in 10.0 mi Calm Calm - N/A   Clear